Date String (YYYY-MM-DD hh:mm:ss) UTC,Instrument flags,Ambient pressure (hPa),Sample flow (lpm),Bypass flow (lpm),Sample temperature (°C),Ambient temperature (°C),ASC tube jacket temperature (°C),LED temperature (°C),Box temperature (°C),Sample RH (%),Span deviation,Mass concentration (μg/m³),Mass concentration (μg/m³),Mass concentration (μg/m³)
DateTimeUTC,F1_M11,P_M11,Q1_M11,Q2_M11,T1_M11,T2_M11,T3_M11,T4_M11,T5_M11,U1_M11,ZSPAN_M11,X0_M11,X2_M11,X1_M11
2022-04-09 13:00:00,,0819.8,5.02,0.00,26.8,25.8,00.0,35.8,28.5,07.6,0000.0,0006.21,0002.37,0001.35
2022-04-09 13:01:00,,0819.7,5.00,0.00,26.8,25.8,00.0,35.8,28.5,07.6,0000.0,0006.16,0002.37,0001.36
2022-04-09 13:02:00,,0819.7,5.00,0.00,26.8,25.8,00.0,35.8,28.5,07.6,0000.0,0006.01,0002.29,0001.36
2022-04-09 13:03:00,,0819.8,5.00,0.00,26.8,25.8,00.0,35.8,28.6,07.6,0000.0,0006.05,0002.30,0001.37
2022-04-09 13:04:00,,0819.8,5.02,0.00,26.8,25.8,00.0,35.8,28.5,07.6,0000.0,0006.20,0002.35,0001.38
2022-04-09 13:05:00,,0819.7,5.00,0.00,26.8,25.8,00.0,35.8,28.5,07.6,0000.0,0006.09,0002.33,0001.39
2022-04-09 13:06:00,,0819.8,4.99,0.00,26.8,25.8,00.0,35.8,28.6,07.5,0000.0,0005.73,0002.31,0001.41
2022-04-09 13:07:00,,0819.8,5.01,0.00,26.8,25.8,00.0,35.8,28.5,07.7,0000.0,0005.25,0002.33,0001.44
2022-04-09 13:08:00,,0819.8,5.00,0.00,26.8,25.8,00.0,35.8,28.5,07.7,0000.0,0004.61,0002.39,0001.46
2022-04-09 13:09:00,,0819.8,4.99,0.00,26.8,25.8,00.0,35.8,28.5,07.6,0000.0,0004.87,0002.45,0001.49
2022-04-09 13:10:00,,0819.9,5.00,0.00,26.8,25.8,00.0,35.8,28.4,07.6,0000.0,0006.68,0002.47,0001.52
2022-04-09 13:11:00,,0819.8,5.01,0.00,26.8,25.8,00.0,35.7,28.4,07.7,0000.0,0006.60,0002.40,0001.54
2022-04-09 13:12:00,,0819.9,5.00,0.00,26.8,25.8,00.0,35.7,28.4,07.7,0000.0,0007.08,0002.46,0001.56
2022-04-09 13:13:00,,0819.9,4.98,0.00,26.8,25.8,00.0,35.7,28.5,07.7,0000.0,0007.39,0002.52,0001.58
2022-04-09 13:14:00,,0819.9,5.02,0.00,26.8,25.8,00.0,35.8,28.5,07.7,0000.0,0007.55,0002.58,0001.59
2022-04-09 13:15:00,,0819.9,4.99,0.00,26.8,25.8,00.0,35.8,28.5,07.7,0000.0,0007.58,0002.58,0001.60
2022-04-09 13:16:00,,0819.9,5.00,0.00,26.8,25.8,00.0,35.8,28.5,07.7,0000.0,0007.58,0002.60,0001.61
2022-04-09 13:17:00,,0819.9,5.00,0.00,26.8,25.8,00.0,35.8,28.5,07.7,0000.0,0007.55,0002.59,0001.60
2022-04-09 13:18:00,,0819.9,5.00,0.00,26.8,25.8,00.0,35.8,28.5,07.7,0000.0,0007.52,0002.62,0001.59
2022-04-09 13:19:00,,0819.9,5.01,0.00,26.8,25.8,00.0,35.8,28.5,07.7,0000.0,0007.44,0002.58,0001.59
2022-04-09 13:20:00,,0819.9,4.99,0.00,26.8,25.8,00.0,35.8,28.5,07.7,0000.0,0007.23,0002.52,0001.58
2022-04-09 13:21:00,,0819.9,4.99,0.00,26.8,25.8,00.0,35.8,28.5,07.7,0000.0,0005.26,0002.49,0001.56
2022-04-09 13:22:00,,0819.9,5.00,0.00,26.8,25.8,00.0,35.8,28.5,07.7,0000.0,0005.15,0002.50,0001.56
2022-04-09 13:23:00,,0819.9,5.01,0.00,26.8,25.8,00.0,35.8,28.5,07.7,0000.0,0005.04,0002.45,0001.56
2022-04-09 13:24:00,,0819.9,4.99,0.00,26.8,25.8,00.0,35.8,28.5,07.7,0000.0,0005.08,0002.46,0001.58
2022-04-09 13:25:00,,0819.9,4.99,0.00,26.8,25.8,00.0,35.8,28.5,07.7,0000.0,0005.10,0002.51,0001.59
2022-04-09 13:26:00,,0819.9,5.01,0.00,26.8,25.8,00.0,35.8,28.5,07.7,0000.0,0005.24,0002.53,0001.62
2022-04-09 13:27:00,,0819.9,4.99,0.00,26.8,25.8,00.0,35.8,28.6,07.7,0000.0,0005.44,0002.60,0001.64
2022-04-09 13:28:00,,0819.9,4.99,0.00,26.8,25.8,00.0,35.8,28.6,07.7,0000.0,0005.76,0002.72,0001.66
2022-04-09 13:29:00,,0819.9,4.99,0.00,26.8,25.8,00.0,35.8,28.6,07.8,0000.0,0005.65,0002.65,0001.67
2022-04-09 13:30:00,,0819.9,5.00,0.00,26.8,25.8,00.0,35.8,28.6,07.8,0000.0,0005.76,0002.69,0001.70
2022-04-09 13:31:00,,0819.9,5.01,0.00,26.8,25.8,00.0,35.8,28.6,07.8,0000.0,0005.89,0002.74,0001.73
2022-04-09 13:32:00,,0819.9,5.00,0.00,26.8,25.8,00.0,35.8,28.6,07.9,0000.0,0006.08,0002.74,0001.74
2022-04-09 13:33:00,,0819.9,4.99,0.00,26.9,25.8,00.0,35.8,28.6,07.8,0000.0,0006.03,0002.74,0001.76
2022-04-09 13:34:00,,0819.9,5.00,0.00,26.8,25.8,00.0,35.8,28.6,07.8,0000.0,0006.03,0002.80,0001.78
2022-04-09 13:35:00,,0819.9,5.00,0.00,26.9,25.8,00.0,35.8,28.6,07.8,0000.0,0005.73,0002.86,0001.78
2022-04-09 13:36:00,,0819.9,4.99,0.00,26.9,25.8,00.0,35.8,28.6,07.9,0000.0,0005.39,0002.76,0001.77
2022-04-09 13:37:00,,0819.9,5.02,0.00,26.9,25.8,00.0,35.8,28.6,07.9,0000.0,0005.15,0002.73,0001.76
2022-04-09 13:38:00,,0819.9,4.99,0.00,26.9,25.8,00.0,35.8,28.7,07.9,0000.0,0004.98,0002.69,0001.74
2022-04-09 13:39:00,,0819.8,4.98,0.00,26.9,25.8,00.0,35.8,28.6,07.9,0000.0,0004.88,0002.63,0001.72
2022-04-09 13:40:00,,0819.8,5.00,0.00,26.9,25.8,00.0,35.8,28.6,08.0,0000.0,0005.27,0002.77,0001.73
2022-04-09 13:41:00,,0819.8,5.01,0.00,26.9,25.8,00.0,35.8,28.6,07.9,0000.0,0005.29,0002.79,0001.74
2022-04-09 13:42:00,,0819.8,5.01,0.00,26.9,25.7,00.0,35.8,28.6,08.0,0000.0,0006.15,0002.81,0001.76
2022-04-09 13:43:00,,0819.9,4.99,0.00,26.9,25.8,00.0,35.8,28.6,08.0,0000.0,0006.23,0002.83,0001.78
2022-04-09 13:44:00,,0819.8,4.99,0.00,26.9,25.8,00.0,35.8,28.6,08.0,0000.0,0006.39,0002.88,0001.80
2022-04-09 13:45:00,,0819.8,5.00,0.00,26.9,25.8,00.0,35.8,28.7,08.1,0000.0,0006.50,0002.89,0001.80
2022-04-09 13:46:00,,0819.8,5.02,0.00,26.9,25.8,00.0,35.8,28.7,08.1,0000.0,0006.45,0002.88,0001.80
2022-04-09 13:47:00,,0819.9,5.00,0.00,26.9,25.8,00.0,35.8,28.7,08.2,0000.0,0006.58,0002.94,0001.81
2022-04-09 13:48:00,,0819.9,5.00,0.00,26.9,25.8,00.0,35.9,28.7,08.1,0000.0,0006.83,0003.01,0001.82
2022-04-09 13:49:00,,0819.9,5.01,0.00,27.0,25.8,00.0,35.9,28.7,08.1,0000.0,0007.23,0003.01,0001.84
2022-04-09 13:50:00,,0819.8,5.00,0.00,27.0,25.8,00.0,35.9,28.7,08.0,0000.0,0007.33,0003.02,0001.87
2022-04-09 13:51:00,,0819.8,4.99,0.00,27.0,25.8,00.0,35.9,28.7,08.0,0000.0,0007.11,0002.91,0001.88
2022-04-09 13:52:00,,0819.8,5.01,0.00,27.0,25.8,00.0,35.9,28.7,08.0,0000.0,0007.11,0002.91,0001.89
2022-04-09 13:53:00,,0819.8,4.99,0.00,27.0,25.8,00.0,35.9,28.7,08.0,0000.0,0006.65,0002.91,0001.90
2022-04-09 13:54:00,,0819.8,5.01,0.00,27.0,25.8,00.0,35.9,28.7,08.0,0000.0,0006.08,0002.95,0001.90
2022-04-09 13:55:00,,0819.7,5.00,0.00,27.0,25.8,00.0,35.9,28.7,08.1,0000.0,0006.48,0002.99,0001.91
2022-04-09 13:56:00,,0819.6,4.99,0.00,27.0,25.8,00.0,35.9,28.8,08.1,0000.0,0006.42,0002.98,0001.93
2022-04-09 13:57:00,,0819.7,5.00,0.00,27.0,25.9,00.0,35.9,28.8,08.0,0000.0,0006.40,0002.99,0001.96
2022-04-09 13:58:00,,0819.8,5.01,0.00,27.0,25.9,00.0,35.9,28.8,08.1,0000.0,0006.49,0003.03,0001.99
2022-04-09 13:59:00,,0819.7,4.99,0.00,27.0,25.9,00.0,35.9,28.8,08.1,0000.0,0006.37,0002.99,0002.01
